Flag for U.S.A. Weather past 2 weeks in Visalia, California, U.S.A.

Now
75 °F

Sunny.


Feels Like: 78 °F
Forecast: 55 / 85 °F
Wind: 5 mph from Northwest

Location: Visalia Municipal


UV Index: 7 (High)

Visibility: 10 mi


Pressure: 29.86 "Hg

Humidity: 47%

Dew point: 54 °F

Location of VisaliaLocation

Historic Weather in Visalia

°F

Visalia temperature yesterday

Maximum temperature yesterday: 86 °F (at 3:55 PM)
Minimum temperature yesterday: 54 °F (at 6:35 AM)
Average temperature yesterday: 70 °F

Past Weeks' High & Low Weather Summary

 TemperatureHumidityPressure
High88 °F (Apr 8, 2:55 PM)82% (Apr 3, 8:55 AM)30.22 "Hg (Apr 3, 8:55 AM)
Low43 °F (Apr 2, 6:35 AM)14% (Apr 15, 6:35 PM)29.72 "Hg (Apr 11, 6:55 PM)
Average63 °F56%29.99 "Hg
* Reported Apr 1 11:15 AM — Apr 16 11:55 AM, Visalia, Weather by CustomWeather, © 2014

Note: Actual official high and low records may vary slightly from our data, if they occured in-between our weather recording intervals... More about our weather records

Advertising

Historic Weather Conditions — Data for Previous 24 hours

 ConditionsComfort  
Time TempWeatherWind HumidityBarometerVisibility
11:55 AM
Apr 16
73 °FSunny.9 mph50%29.87 "Hg10 mi
11:35 AM72 °FSunny.No wind50%29.87 "Hg10 mi
11:15 AM72 °FSunny.6 mph50%29.88 "Hg10 mi
10:55 AM70 °FSunny.8 mph53%29.88 "Hg10 mi
10:35 AM68 °FSunny.6 mph56%29.88 "Hg10 mi
10:15 AM66 °FSunny.3 mph60%29.88 "Hg10 mi
9:55 AM64 °FSunny.No wind56%29.88 "Hg10 mi
9:35 AM63 °FSunny.5 mph64%29.88 "Hg10 mi
9:15 AM63 °FSunny.3 mph59%29.88 "Hg10 mi
8:55 AM61 °FSunny.3 mph63%29.88 "Hg10 mi
8:35 AM57 °FSunny.3 mph67%29.87 "Hg10 mi
8:15 AM57 °FSunny.No wind67%29.87 "Hg10 mi
7:55 AM55 °FSunny.5 mph72%29.87 "Hg10 mi
7:35 AM54 °FSunny.No wind72%29.87 "Hg10 mi
7:15 AM52 °FClear.No wind72%29.86 "Hg10 mi
6:55 AM50 °FClear.No wind71%29.85 "Hg10 mi
6:15 AM50 °FClear.6 mph71%29.85 "Hg10 mi
5:55 AM50 °FClear.No wind71%29.85 "Hg10 mi
5:35 AM52 °FClear.3 mph67%29.85 "Hg10 mi
5:15 AM52 °FClear.No wind72%29.85 "Hg10 mi
4:55 AM50 °FClear.3 mph67%29.84 "Hg10 mi
4:35 AM55 °FClear.No wind63%29.85 "Hg10 mi
4:15 AM57 °FClear.No wind59%29.84 "Hg10 mi
3:55 AM57 °FClear.3 mph63%29.84 "Hg10 mi
3:35 AM55 °FClear.5 mph63%29.85 "Hg10 mi
2:55 AM57 °FClear.5 mph59%29.84 "Hg10 mi
2:35 AM57 °FClear.5 mph63%29.84 "Hg10 mi
2:15 AM57 °FClear.7 mph59%29.84 "Hg10 mi
1:55 AM57 °FClear.5 mph63%29.84 "Hg10 mi
1:35 AM55 °FClear.No wind59%29.85 "Hg10 mi
1:15 AM57 °FClear.3 mph59%29.85 "Hg10 mi
12:55 AM59 °FClear.6 mph51%29.85 "Hg10 mi
12:35 AM57 °FClear.No wind55%29.85 "Hg10 mi
12:15 AM61 °FClear.5 mph45%29.85 "Hg10 mi
11:55 PM
Apr 15
66 °FClear.9 mph40%29.84 "Hg10 mi
11:35 PM64 °FClear.6 mph40%29.84 "Hg10 mi
11:15 PM66 °FClear.7 mph37%29.84 "Hg10 mi
10:55 PM66 °FClear.7 mph37%29.84 "Hg10 mi
10:35 PM68 °FClear.7 mph33%29.83 "Hg10 mi
10:15 PM68 °FClear.9 mph33%29.84 "Hg10 mi
9:55 PM70 °FClear.9 mph29%29.83 "Hg10 mi
9:35 PM72 °FClear.9 mph25%29.83 "Hg10 mi
8:55 PM73 °FClear.10 mph25%29.83 "Hg10 mi
8:35 PM68 °FClear.7 mph33%29.82 "Hg10 mi
8:15 PM70 °FSunny.7 mph31%29.80 "Hg10 mi
7:55 PM72 °FSunny.7 mph31%29.80 "Hg10 mi
7:35 PM73 °FSunny.6 mph27%29.80 "Hg10 mi
7:15 PM77 °FSunny.6 mph22%29.80 "Hg10 mi
6:55 PM81 °FSunny.8 mph18%29.79 "Hg10 mi
6:35 PM84 °FSunny.9 mph14%29.80 "Hg10 mi
6:15 PM84 °FSunny.12 mph15%29.80 "Hg10 mi
5:55 PM84 °FSunny.10 mph16%29.80 "Hg10 mi
3:55 PM86 °FSunny.12 mph25%29.84 "Hg10 mi
3:35 PM84 °FSunny.7 mph27%29.85 "Hg10 mi
3:15 PM84 °FSunny.8 mph31%29.86 "Hg10 mi
2:55 PM84 °FSunny.7 mph31%29.87 "Hg10 mi
2:35 PM84 °FSunny.8 mph27%29.87 "Hg10 mi
1:55 PM84 °FSunny.7 mph31%29.88 "Hg10 mi
1:35 PM82 °FSunny.8 mph30%29.89 "Hg10 mi
1:15 PM82 °FSunny.No wind32%29.90 "Hg10 mi
Weather by CustomWeather, © 2014

See weather overview